RH
19 23 24 24 23 24 29 34 35 34 34 39 50 60 68 80 86 84 86 89 91 92 93 96 98 98 98 98 98 97 98 99 99 99 98 97 96 95 94 95 95 95 95 94 93 94 94 91 88 82 77 76
19 23 26 27 26 26 28 34 39 39 38 39 46 59 66 73 82 85 85 86 88 90 89 91 94 96 97 97 97 96 95 96 97 98 98 97 98 97 97 95 95 96 98 96 93 93 95 95 91 85 81 79
18 21 24 26 27 27 27 30 37 41 41 41 43 54 67 73 77 83 85 84 85 87 88 90 91 93 95 95 96 96 95 94 94 95 96 97 97 99 99 97 97 97 99 99 95 93 94 96 95 93 88 82
17 19 21 24 26 26 26 26 30 36 40 42 43 47 59 71 77 79 83 84 83 85 85 87 89 90 92 93 93 94 96 95 94 92 92 94 96 98 100 98 98 98 98 99 97 95 94 94 95 95 92 87
16 17 18 21 23 24 25 25 25 29 33 38 41 43 47 61 74 78 79 82 83 83 83 83 86 87 89 90 90 91 93 95 95 93 91 92 94 95 97 99 99 99 99 99 99 97 96 95 95 95 94 91
12 15 16 17 20 22 23 25 25 26 28 31 35 39 41 48 63 75 78 80 82 83 82 81 83 85 87 87 87 88 89 92 94 95 94 93 94 94 95 97 98 100 100 99 99 99 97 96 96 94 94 93
9 11 14 16 18 20 21 23 25 26 27 28 29 32 37 40 48 62 73 76 77 81 82 80 80 82 83 83 84 85 87 89 90 92 93 94 95 95 95 95 96 98 99 100 99 100 99 98 97 93 94 95
9 10 12 15 17 19 20 21 23 25 26 28 29 29 32 36 39 47 60 70 74 76 79 80 78 79 80 81 81 82 84 86 87 87 88 91 93 94 96 96 95 95 97 99 99 100 100 99 98 95 95 96
11 11 12 12 14 16 18 19 21 23 24 25 28 29 30 32 36 39 46 58 67 71 74 76 77 77 76 78 80 80 81 83 83 83 84 86 88 91 94 96 97 95 95 96 97 98 100 100 99 98 96 94
13 13 13 13 13 13 14 16 18 20 23 24 25 27 29 31 34 37 39 45 55 64 71 72 73 75 75 74 76 78 79 80 81 80 81 82 84 86 90 93 96 96 95 95 95 96 97 99 100 99 97 94
16 16 16 15 15 14 14 14 16 18 20 22 23 24 27 30 32 35 38 41 45 53 63 70 72 73 74 73 73 74 75 77 78 78 79 80 80 82 85 89 93 95 96 95 95 95 95 96 98 100 99 96
17 17 17 17 17 16 16 15 15 16 17 18 21 22 23 27 30 32 36 39 42 45 52 61 68 72 74 74 72 72 72 73 75 75 76 78 78 78 80 85 89 92 95 95 96 96 95 95 95 97 99 99
17 16 16 16 17 17 17 18 17 16 16 16 17 18 20 24 27 30 33 37 41 43 45 50 58 65 71 75 73 71 69 69 71 72 73 74 76 76 76 78 82 87 91 93 94 96 96 96 95 95 96 98
17 16 16 16 16 16 17 18 19 19 18 16 15 15 16 20 24 26 30 35 39 41 43 45 48 55 62 68 72 71 70 68 67 69 70 71 72 74 74 74 75 78 84 88 89 92 95 95 95 95 95 95
17 16 15 15 14 15 15 16 17 19 20 19 17 16 15 17 21 24 27 32 36 40 42 43 44 47 50 56 63 67 69 69 68 66 67 68 69 70 71 72 72 72 75 80 83 86 91 94 94 94 95 95
16 15 14 14 14 14 15 16 17 18 20 22 21 20 17 16 18 21 24 27 31 36 40 43 45 45 45 46 51 57 62 64 65 66 64 64 66 68 69 69 70 70 70 72 75 79 84 88 92 94 95 95
15 15 15 14 15 16 17 18 20 20 20 21 23 24 22 20 20 20 21 23 27 31 36 42 45 46 45 44 44 47 53 57 59 62 62 63 63 65 66 67 68 68 67 68 70 73 77 82 86 90 93 94
16 15 15 15 17 19 20 21 22 22 22 21 23 25 25 25 25 24 21 20 21 25 31 37 43 46 48 48 46 44 45 49 53 57 60 61 62 62 63 65 66 66 65 66 66 67 71 75 80 84 88 91
17 16 15 16 18 20 22 23 24 24 24 23 24 25 26 27 29 28 25 22 20 21 24 30 37 44 48 50 51 50 47 45 47 51 56 59 60 61 61 61 63 64 64 64 63 63 65 68 73 78 82 86
18 17 17 18 19 21 22 23 25 26 27 27 28 28 28 27 29 30 30 28 25 22 21 22 28 36 43 49 52 53 52 49 47 47 50 54 58 59 59 59 59 60 62 62 61 61 61 61 63 69 75 81
21 20 19 19 19 20 21 23 25 28 30 31 31 31 31 30 29 31 33 32 30 28 24 21 21 26 35 43 49 53 54 54 53 51 50 51 54 57 58 58 58 57 58 59 59 58 58 58 58 59 65 73
23 21 19 18 18 20 21 23 25 28 30 31 32 33 32 32 31 32 33 35 34 33 30 26 22 21 26 33 41 49 53 55 54 54 55 55 55 56 57 58 57 56 56 56 56 57 56 56 56 54 56 64
24 22 20 18 18 20 22 23 25 27 29 30 31 32 31 31 32 34 35 37 37 36 35 33 28 24 22 25 32 40 48 53 55 55 56 58 59 58 57 58 58 57 56 55 54 55 55 54 54 53 53 56
25 23 21 18 18 20 21 23 26 27 29 29 29 30 31 31 31 33 36 38 40 39 37 36 35 31 26 23 26 32 39 46 51 54 55 57 60 62 60 59 59 58 56 54 53 53 53 53 52 52 53 54
26 25 22 19 18 19 20 22 25 27 28 29 29 30 31 32 32 33 35 37 40 41 39 38 37 37 34 29 26 26 31 37 44 49 53 55 57 59 60 59 60 59 57 55 53 52 52 52 51 50 51 54
27 26 24 21 17 17 20 21 23 26 28 29 30 31 32 33 34 34 34 36 39 41 41 40 39 39 38 36 31 27 27 32 38 44 48 50 52 53 55 57 59 60 59 56 55 54 52 51 51 49 49 52
27 26 24 22 19 17 19 21 22 25 27 29 30 31 32 34 35 35 36 37 38 40 40 39 39 39 39 38 36 32 28 27 32 38 42 44 45 47 49 52 55 58 59 59 57 56 54 54 54 52 49 49
28 27 26 24 20 18 18 20 22 24 26 27 29 31 32 34 35 36 37 37 38 39 39 39 38 38 37 37 36 34 31 26 24 28 34 40 42 43 46 48 51 54 57 59 59 58 59 58 56 55 53 50
29 28 26 25 22 19 18 20 22 23 25 26 28 29 30 32 33 34 36 36 37 38 39 39 38 38 37 37 36 35 33 29 25 23 25 32 39 43 46 47 49 51 53 55 58 60 61 61 61 60 57 53
31 29 27 26 23 20 18 20 21 22 24 26 27 29 29 30 32 33 34 35 36 36 37 37 37 37 37 37 37 37 35 34 32 29 26 27 33 40 46 48 48 49 50 52 54 57 59 61 65 64 61 59
32 31 28 27 25 21 19 20 22 23 24 25 27 29 30 31 32 33 34 34 35 36 35 36 36 37 37 37 37 37 38 37 36 34 32 31 30 34 41 47 50 50 50 50 51 53 55 57 59 59 60 62